Flag for United Kingdom Weather past 2 weeks in Chichester, England, United Kingdom

Now
50 °F

Cool.


Feels Like: 45 °F
Forecast: N/A
Wind: 14 mph from Northwest

Location: Thorney Island

Current Time: Jan 26, 2015 at 3:05:38 PM

Latest Report: Jan 26, 2015 at 2:00 PM


Visibility: 28 mi

Pressure: 30.23 "Hg

Humidity: 68%

Dew point: 40 °F

Location of ChichesterLocation

Historic Weather in Chichester — Graph

°F

Chichester temperature yesterday

Maximum temperature yesterday: 47 °F (at 1:00 PM)
Minimum temperature yesterday: 32 °F (at 8:00 AM)
Average temperature yesterday: 40 °F

Past Weeks' High & Low Weather Summary

 TemperatureHumidityPressure
High53 °F (Jan 26, 12:00 PM)99% (Jan 18, 7:00 AM)30.51 "Hg (Jan 18, 7:00 AM)
Low23 °F (Jan 23, 8:00 AM)61% (Jan 24, 2:00 PM)29.21 "Hg (Jan 15, 4:00 AM)
Average41 °F86%29.92 "Hg
* Reported Jan 11 1:00 PM — Jan 26 1:00 PM, Chichester, Weather by CustomWeather, © 2014

Note: Actual official high and low records may vary slightly from our data, if they occured in-between our weather recording intervals... More about our weather records

Advertising

Chichester weather history for previous 24 hours

 ConditionsComfort  
Time TempWeatherWind HumidityBarometerVisibility
1:00 PM
Jan 26
53 °FCool.10 mph70%30.22 "Hg28 mi
12:00 PM53 °FCool.13 mph77%30.21 "Hg28 mi
11:00 AM51 °FCool.9 mph89%30.22 "Hg22 mi
10:00 AM49 °FCool.10 mph92%30.21 "Hg16 mi
9:00 AM48 °FCool.12 mph91%30.19 "Hg22 mi
8:00 AM48 °FCool.12 mph94%30.20 "Hg25 mi
7:00 AM48 °FCool.12 mph93%30.20 "Hg12 mi
6:00 AM49 °FCool.10 mph91%30.21 "Hg28 mi
5:00 AM49 °FCool.14 mph93%30.22 "Hg22 mi
4:00 AM49 °FCool.13 mph93%30.24 "Hg19 mi
2:00 AM49 °FCool.13 mph94%30.27 "Hg15 mi
1:00 AM48 °FCool.13 mph93%30.29 "Hg10 mi
12:00 AM48 °FCool.12 mph91%30.31 "Hg12 mi
11:00 PM
Jan 25
47 °FCool.14 mph92%30.32 "Hg10 mi
10:00 PM46 °FCool.9 mph93%30.34 "Hg8 mi
9:00 PM46 °FCool.10 mph91%30.35 "Hg11 mi
8:00 PM46 °FCool.8 mph87%30.36 "Hg12 mi
7:00 PM46 °FCool.9 mph85%30.38 "Hg13 mi
6:00 PM46 °FCool.13 mph82%30.39 "Hg12 mi
5:00 PM46 °FCool.13 mph78%30.40 "Hg18 mi
4:00 PM46 °FCool.12 mph76%30.41 "Hg16 mi
3:00 PM47 °FCool.12 mph73%30.42 "Hg18 mi
Weather by CustomWeather, © 2014

See weather overviewHow to use our weather pages